Satellite: OKEAN-4 Catalog number: 23317 Epoch time: 10020.73860202 Element set: 0133 Inclination: 082.5420 deg RA of node: 131.4800 deg Eccentricity: 0.0022452 Arg of perigee: 012.3423 deg Mean anomaly: 347.8372 deg Mean motion: 14.82757988 rev/day Decay rate: +1.88e-06 rev/day^2 Epoch rev: 82460 Checksum: 268
Satellite: NOAA-14 Catalog number: 23455 Epoch time: 10020.72459802 Element set: 0916 Inclination: 098.8909 deg RA of node: 102.4349 deg Eccentricity: 0.0008755 Arg of perigee: 297.3322 deg Mean anomaly: 062.6948 deg Mean motion: 14.13777082 rev/day Decay rate: +2.0e-08 rev/day^2 Epoch rev: 77666 Checksum: 322
Satellite: NOAA-15 Catalog number: 25338 Epoch time: 10020.61265513 Element set: 0241 Inclination: 098.6064 deg RA of node: 010.2857 deg Eccentricity: 0.0011265 Arg of perigee: 141.2015 deg Mean anomaly: 218.9954 deg Mean motion: 14.24802317 rev/day Decay rate: -8.2e-07 rev/day^2 Epoch rev: 60773 Checksum: 266
Satellite: RESURS Catalog number: 25394 Epoch time: 10020.67144128 Element set: 0413 Inclination: 098.3168 deg RA of node: 046.7013 deg Eccentricity: 0.0000994 Arg of perigee: 332.0632 deg Mean anomaly: 028.0490 deg Mean motion: 14.24192361 rev/day Decay rate: -2.7e-07 rev/day^2 Epoch rev: 59935 Checksum: 271
Satellite: FENGYUN1 Catalog number: 25730 Epoch time: 10020.87190052 Element set: 0955 Inclination: 098.7741 deg RA of node: 349.7513 deg Eccentricity: 0.0024073 Arg of perigee: 321.3081 deg Mean anomaly: 038.6329 deg Mean motion: 14.08171608 rev/day Decay rate: +2.19e-06 rev/day^2 Epoch rev: 55095 Checksum: 288
Satellite: OKEAN-0 Catalog number: 25860 Epoch time: 10021.75010187 Element set: 893 Inclination: 097.8138 deg RA of node: 359.5801 deg Eccentricity: 0.0001019 Arg of perigee: 110.6165 deg Mean anomaly: 249.5154 deg Mean motion: 14.73608510 rev/day Decay rate: 2.9e-07 rev/day^2 Epoch rev: 56533 Checksum: 281
Satellite: NOAA-16 Catalog number: 26536 Epoch time: 10020.61060399 Element set: 0718 Inclination: 099.1772 deg RA of node: 034.5511 deg Eccentricity: 0.0010892 Arg of perigee: 035.3070 deg Mean anomaly: 324.8811 deg Mean motion: 14.12542224 rev/day Decay rate: -2.82e-06 rev/day^2 Epoch rev: 48099 Checksum: 281
Satellite: NOAA-17 Catalog number: 27453 Epoch time: 10020.80648547 Element set: 0723 Inclination: 098.4542 deg RA of node: 077.0358 deg Eccentricity: 0.0011369 Arg of perigee: 204.3824 deg Mean anomaly: 155.6792 deg Mean motion: 14.24124448 rev/day Decay rate: +1.20e-06 rev/day^2 Epoch rev: 39372 Checksum: 299
Satellite: NOAA-18 Catalog number: 28654 Epoch time: 10020.84109282 Element set: 0206 Inclination: 098.9347 deg RA of node: 327.6585 deg Eccentricity: 0.0015083 Arg of perigee: 107.9730 deg Mean anomaly: 252.3125 deg Mean motion: 14.11320110 rev/day Decay rate: +1.93e-06 rev/day^2 Epoch rev: 24065 Checksum: 275
Satellite: NOAA-19 Catalog number: 33591 Epoch time: 10020.86797687 Element set: 0414 Inclination: 098.7746 deg RA of node: 326.2395 deg Eccentricity: 0.0014208 Arg of perigee: 350.3005 deg Mean anomaly: 009.7895 deg Mean motion: 14.11018240 rev/day Decay rate: -9.3e-07 rev/day^2 Epoch rev: 04913 Checksum: 304
/EX SB KEPS @ AMSAT $ORB10021.M Orbital Elements 10021.MISC
HR AMSAT ORBITAL ELEMENTS FOR MANNED AND MISCELLANEOUS SATELLITES FROM WA5QGD FORT WORTH,TX January 21, 2010 Send Subscribe/unsubscribe to KEPS at http://www.amsat.org/mailman/listinfo/keps BID: ORB10021.M TO ALL RADIO AMATEURS BT
Satellite: HUBBLE Catalog number: 20580 Epoch time: 10020.69635005 Element set: 507 Inclination: 028.4693 deg RA of node: 122.6396 deg Eccentricity: 0.0003374 Arg of perigee: 077.4179 deg Mean anomaly: 282.6819 deg Mean motion: 15.00880828 rev/day Decay rate: 3.78e-06 rev/day^2 Epoch rev: 88256 Checksum: 309
Satellite: ISS Catalog number: 25544 Epoch time: 10022.07754745 Element set: 419 Inclination: 051.6438 deg RA of node: 261.0881 deg Eccentricity: 0.0006748 Arg of perigee: 214.5181 deg Mean anomaly: 293.0601 deg Mean motion: 15.77653411 rev/day Decay rate: 1.4048e-04 rev/day^2 Epoch rev: 64045 Checksum: 282
Satellite: CO-58 Catalog number: 28895 Epoch time: 10021.71687599 Element set: 493 Inclination: 098.0351 deg RA of node: 270.8720 deg Eccentricity: 0.0018266 Arg of perigee: 027.3484 deg Mean anomaly: 332.8695 deg Mean motion: 14.59836903 rev/day Decay rate: 1.52e-06 rev/day^2 Epoch rev: 22561 Checksum: 338
Satellite: FALCON Catalog number: 30776 Epoch time: 10020.93372334 Element set: 0749 Inclination: 035.4327 deg RA of node: 218.1446 deg Eccentricity: 0.0001858 Arg of perigee: 325.8691 deg Mean anomaly: 034.1905 deg Mean motion: 15.03428780 rev/day Decay rate: +3.85e-06 rev/day^2 Epoch rev: 15788 Checksum: 302
Satellite: MAST Catalog number: 31126 Epoch time: 10020.63535031 Element set: 0783 Inclination: 097.9585 deg RA of node: 070.1233 deg Eccentricity: 0.0094275 Arg of perigee: 325.3212 deg Mean anomaly: 034.1873 deg Mean motion: 14.53547625 rev/day Decay rate: +1.33e-06 rev/day^2 Epoch rev: 14662 Checksum: 269
Satellite: CAPE1 Catalog number: 31130 Epoch time: 10021.78374504 Element set: 795 Inclination: 097.9597 deg RA of node: 068.9257 deg Eccentricity: 0.0102582 Arg of perigee: 329.0227 deg Mean anomaly: 030.4954 deg Mean motion: 14.52124373 rev/day Decay rate: -1.72e-06 rev/day^2 Epoch rev: 14641 Checksum: 291
Satellite: COMPASS Catalog number: 32787 Epoch time: 10021.70478081 Element set: 575 Inclination: 097.9128 deg RA of node: 088.3591 deg Eccentricity: 0.0016602 Arg of perigee: 044.7768 deg Mean anomaly: 315.4778 deg Mean motion: 14.81739720 rev/day Decay rate: 2.81e-06 rev/day^2 Epoch rev: 9380 Checksum: 321
Satellite: AAUSAT2 Catalog number: 32788 Epoch time: 10020.64114541 Element set: 0569 Inclination: 097.9123 deg RA of node: 087.4032 deg Eccentricity: 0.0016355 Arg of perigee: 048.3124 deg Mean anomaly: 311.9465 deg Mean motion: 14.81872063 rev/day Decay rate: +4.12e-06 rev/day^2 Epoch rev: 09365 Checksum: 286
Satellite: DO-64 Catalog number: 32789 Epoch time: 10020.72756967 Element set: 585 Inclination: 097.9204 deg RA of node: 087.8154 deg Eccentricity: 0.0016480 Arg of perigee: 047.3404 deg Mean anomaly: 312.9198 deg Mean motion: 14.81926600 rev/day Decay rate: 1.05e-06 rev/day^2 Epoch rev: 9366 Checksum: 324
Satellite: CO-66 Catalog number: 32791 Epoch time: 10021.70657561 Element set: 565 Inclination: 097.9145 deg RA of node: 088.3888 deg Eccentricity: 0.0016967 Arg of perigee: 042.8715 deg Mean anomaly: 317.3762 deg Mean motion: 14.81548366 rev/day Decay rate: 1.74e-06 rev/day^2 Epoch rev: 9376 Checksum: 347
Satellite: RS-30 Catalog number: 32953 Epoch time: 10021.79949354 Element set: 506 Inclination: 082.5031 deg RA of node: 120.7126 deg Eccentricity: 0.0019751 Arg of perigee: 063.8388 deg Mean anomaly: 296.4721 deg Mean motion: 12.43002993 rev/day Decay rate: 1.0e-07 rev/day^2 Epoch rev: 7555 Checksum: 285
Satellite: TACSAT-3 Catalog number: 35001 Epoch time: 10020.48105183 Element set: 196 Inclination: 040.4565 deg RA of node: 020.2605 deg Eccentricity: 0.0023758 Arg of perigee: 337.0347 deg Mean anomaly: 022.9405 deg Mean motion: 15.40038916 rev/day Decay rate: 3.746e-05 rev/day^2 Epoch rev: 3784 Checksum: 262
Satellite: PHARMSAT Catalog number: 35002 Epoch time: 10020.36273880 Element set: 0196 Inclination: 040.4704 deg RA of node: 019.5942 deg Eccentricity: 0.0026701 Arg of perigee: 340.9460 deg Mean anomaly: 019.0354 deg Mean motion: 15.40720200 rev/day Decay rate: +3.329e-05 rev/day^2 Epoch rev: 03783 Checksum: 248
Satellite: HAWKSAT1 Catalog number: 35003 Epoch time: 10020.36322708 Element set: 0201 Inclination: 040.4626 deg RA of node: 017.6155 deg Eccentricity: 0.0025698 Arg of perigee: 346.7029 deg Mean anomaly: 013.3106 deg Mean motion: 15.42174518 rev/day Decay rate: +6.582e-05 rev/day^2 Epoch rev: 03786 Checksum: 264
Satellite: CP6 Catalog number: 35004 Epoch time: 10020.34885402 Element set: 0191 Inclination: 040.4632 deg RA of node: 017.5179 deg Eccentricity: 0.0024884 Arg of perigee: 346.3397 deg Mean anomaly: 013.6738 deg Mean motion: 15.42454892 rev/day Decay rate: +7.658e-05 rev/day^2 Epoch rev: 03785 Checksum: 307
Satellite: AEROCUB3 Catalog number: 35005 Epoch time: 10020.31184887 Element set: 0200 Inclination: 040.4759 deg RA of node: 018.3902 deg Eccentricity: 0.0024230 Arg of perigee: 342.9992 deg Mean anomaly: 017.0009 deg Mean motion: 15.42679901 rev/day Decay rate: +1.4431e-04 rev/day^2 Epoch rev: 03784 Checksum: 267
Satellite: DRAGNSAT Catalog number: 35690 Epoch time: 10021.69613950 Element set: 197 Inclination: 051.6350 deg RA of node: 248.7386 deg Eccentricity: 0.0002462 Arg of perigee: 114.7665 deg Mean anomaly: 245.4281 deg Mean motion: 15.95066411 rev/day Decay rate: 9.0810e-04 rev/day^2 Epoch rev: 2780 Checksum: 291
Satellite: POLLUX Catalog number: 35693 Epoch time: 10021.87375692 Element set: 191 Inclination: 051.6358 deg RA of node: 249.2103 deg Eccentricity: 0.0000497 Arg of perigee: 040.7850 deg Mean anomaly: 319.3729 deg Mean motion: 15.92776851 rev/day Decay rate: 6.2178e-04 rev/day^2 Epoch rev: 2778 Checksum: 321
Satellite: CASTOR Catalog number: 35694 Epoch time: 10021.77936244 Element set: 165 Inclination: 051.6400 deg RA of node: 253.1910 deg Eccentricity: 0.0002345 Arg of perigee: 359.7958 deg Mean anomaly: 000.3174 deg Mean motion: 15.85764247 rev/day Decay rate: 2.2276e-04 rev/day^2 Epoch rev: 2772 Checksum: 290
Satellite: METEOR-M Catalog number: 35865 Epoch time: 10021.69077836 Element set: 107 Inclination: 098.7797 deg RA of node: 076.3908 deg Eccentricity: 0.0003233 Arg of perigee: 066.6733 deg Mean anomaly: 293.4733 deg Mean motion: 14.21828572 rev/day Decay rate: 1.76e-06 rev/day^2 Epoch rev: 1790 Checksum: 319
